Location: Napier
(39.4830°S, 176.9170°E)
Time: 03:12:16
(UTC+13:00)

ISS - Pass Details

Date: 26 January 2019
Orbit: 403 x 411 km, 51.6° (Epoch: 22 February)

Event Time Altitude Azimuth Distance (km) Brightness Sun altitude
Exits shadow 05:35:04 - 350° (N) 2,246 -0.5 -7.5°
Reaches altitude 10° 05:37:30 10° 12° (NNE) 1,480 -1.2 -7.1°
Maximum altitude 05:39:32 15° 50° (NE) 1,202 -1.2 -6.7°
Drops below altitude 10° 05:41:34 10° 88° (E) 1,489 0.0 -6.4°
Sets 05:44:17 0° 111° (ESE) 2,357 2.4 -5.9°
